This demonstration page uses our WeatherBlox Daily Observations layout. Learn more.

Left ArrowRight Arrow

38.89511, -77.03637

Hourly Observations for May 10, 2018

Temp ( °F °C ) Dew Point ( °F °C ) Humidity (%) Winds ( mph kmh ) Pressure ( in mb ) Visibility ( mi km ) Precip ( " mm )
2:52 am 02:52 Clear 62 16.7 55 12.8 78 78 S 8 13 30.04 1017 10 16 0.00 0.00
3:52 am 03:52 Mostly Clear 61 16.1 55 12.8 81 81 S 8 13 30.03 1017 10 16 0.00 0.00
4:52 am 04:52 Partly Cloudy 61 16.1 56 13.3 84 84 S 7 11 30.02 1017 10 16 0.00 0.00
5:52 am 05:52 Mostly Cloudy 61 16.1 56 13.3 84 84 S 12 19 30.01 1016 10 16 0.00 0.00
6:52 am 06:52 Partly Cloudy 63 17.2 57 13.9 81 81 S 10 17 29.99 1016 10 16 0.00 0.00
7:52 am 07:52 Partly Cloudy 66 18.9 58 14.4 75 75 S 10 17 29.98 1015 10 16 0.00 0.00
8:52 am 08:52 Mostly Cloudy 67 19.4 58 14.4 73 73 SSW 13 20 29.96 1015 10 16 0.00 0.00
9:52 am 09:52 Cloudy with Light Rain 68 20 58 14.4 70 70 SSW 10 17 29.96 1015 10 16 0.00 0.03
10:52 am 10:52 Cloudy 71 21.7 58 14.4 63 63 SW 13 20 29.95 1014 10 16 0.00 0.03
11:52 am 11:52 Cloudy with Light Rain 71 21.7 58 14.4 63 63 SSW 12 19 29.93 1013 10 16 0.00 0.03
12:52 pm 12:52 Mostly Cloudy 75 23.9 60 15.6 60 60 S 8 13 29.91 1013 10 16 0.00 0.03
1:52 pm 13:52 Mostly Cloudy 79 26.1 62 16.7 56 56 S 10 17 29.88 1012 10 16 0.00 0.00
2:52 pm 14:52 Mostly Cloudy 83 28.3 61 16.1 48 48 S 9 15 29.85 1011 10 16 0.00 0.00
3:52 pm 15:52 Cloudy 82 27.8 60 15.6 47 47 SSW 12 19 29.83 1010 10 16 0.00 0.00
4:12 pm 16:12 Cloudy with Light Rain 81 27.2 61 16.1 51 51 SSW 16 26 29.80 1009 10 16 0.00 0.03
4:38 pm 16:38 Cloudy 81 27.2 63 17.2 54 54 SSW 13 20 29.80 1009 10 16 0.00 0.03
4:49 pm 16:49 Cloudy with Nearby Thunderstorms 81 27 63 17 54 54 SW 9 15 29.80 1009 10 16 0.00 0.03
4:52 pm 16:52 Cloudy with Nearby Thunderstorms 81 27.2 63 17.2 54 54 SW 9 15 29.81 1010 10 16 0.00 0.03
4:59 pm 16:59 Cloudy with Thunderstorms 80 26.7 63 17.2 56 56 SW 10 17 29.80 1009 10 16 0.00 0.00
5:45 pm 17:45 Cloudy with Nearby Thunderstorms 79 26.1 62 16.7 56 56 SSW 12 19 29.80 1009 10 16 0.00 0.00
5:52 pm 17:52 Cloudy 79 26.1 62 16.7 56 56 SSW 6 9 29.80 1009 10 16 0.00 0.00
6:52 pm 18:52 Cloudy 78 25.6 60 15.6 54 54 SSW 10 17 29.81 1009 10 16 0.00 0.00
7:28 pm 19:28 Cloudy with Light Rain 76 24.4 60 15.6 58 58 SSW 9 15 29.83 1010 10 16 0.00 0.03
7:52 pm 19:52 Mostly Cloudy 76 24.4 61 16.1 60 60 SSW 9 15 29.84 1010 10 16 0.00 0.03
8:52 pm 20:52 Mostly Cloudy 73 22.8 61 16.1 66 66 SW 9 15 29.85 1011 10 16 0.00 0.00
9:52 pm 21:52 Partly Cloudy 73 22.8 57 13.9 57 57 WSW 12 19 29.86 1011 10 16 0.00 0.00
10:52 pm 22:52 Mostly Clear 69 20.6 55 12.8 61 61 S 8 13 29.89 1012 10 16 0.00 0.00
11:52 pm 23:52 Clear 67 19.4 57 13.9 71 71 S 6 9 29.90 1013 10 16 0.00 0.00

Powered by AerisWeather